XIO7AE LIMC-LMML

Flight info

Callsign XIO7AE
Flight time 2h 46m
Altitude 41000
Route ROBAS DCT EKPAL DCT TINKU DCT ROSKI DCT TURMO DCT PAL DCT ALOKU DCT MARON L12 GZO
Aircraft B77L/H-SDE1E3FGHIJ2J3J4J5J7LM1OP1P2P3RVWXYZ/HB1D1

Departure

Time 2026-04-30 09:36
Airport Milan Malpensa International Airport (LIMC)

Arrival

Time 2026-04-30 12:22
Airport Malta International Airport (LMML)
Time Latitude Longitude Altitude Speed Heading
2026-04-30 08:42 45.63301 8.71277 757 ft 0 kts 305°
2026-04-30 09:12 45.63293 8.71293 752 ft 3 kts 304°
2026-04-30 09:12 45.63282 8.71317 752 ft 3 kts 308°
2026-04-30 09:12 45.63269 8.71337 752 ft 3 kts 331°
2026-04-30 09:13 45.63252 8.71345 752 ft 3 kts 357°
2026-04-30 09:13 45.63236 8.71343 752 ft 3 kts 50°
2026-04-30 09:13 45.63229 8.71320 752 ft 3 kts 80°
2026-04-30 09:13 45.63228 8.71314 752 ft 3 kts 79°
2026-04-30 09:14 45.63232 8.71342 752 ft 3 kts 79°
2026-04-30 09:14 45.63236 8.71370 752 ft 3 kts 79°
2026-04-30 09:14 45.63236 8.71374 752 ft 0 kts 79°
2026-04-30 09:19 45.63250 8.71471 754 ft 13 kts 79°
2026-04-30 09:19 45.63268 8.71608 754 ft 15 kts 79°
2026-04-30 09:19 45.63273 8.71639 753 ft 0 kts 78°
2026-04-30 09:20 45.63273 8.71641 753 ft 1 kts 78°
2026-04-30 09:20 45.63274 8.71645 753 ft 0 kts 78°
2026-04-30 09:21 45.63274 8.71646 753 ft 1 kts 78°
2026-04-30 09:22 45.63278 8.71676 756 ft 4 kts 78°
2026-04-30 09:22 45.63284 8.71715 753 ft 4 kts 78°
2026-04-30 09:22 45.63290 8.71765 753 ft 6 kts 79°
2026-04-30 09:22 45.63290 8.71831 752 ft 7 kts 112°
2026-04-30 09:23 45.63248 8.71865 754 ft 8 kts 167°
2026-04-30 09:23 45.63190 8.71883 756 ft 9 kts 169°
2026-04-30 09:23 45.63119 8.71902 755 ft 14 kts 169°
2026-04-30 09:23 45.62956 8.71947 754 ft 34 kts 169°
2026-04-30 09:24 45.62730 8.72010 755 ft 25 kts 169°
2026-04-30 09:24 45.62613 8.72041 757 ft 13 kts 169°
2026-04-30 09:24 45.62519 8.72067 756 ft 15 kts 169°
2026-04-30 09:24 45.62414 8.72096 755 ft 16 kts 169°
2026-04-30 09:25 45.62302 8.72128 753 ft 17 kts 169°
2026-04-30 09:25 45.62181 8.72162 756 ft 18 kts 168°
2026-04-30 09:25 45.62053 8.72196 755 ft 19 kts 171°
2026-04-30 09:25 45.61925 8.72232 755 ft 19 kts 168°
2026-04-30 09:26 45.61802 8.72265 756 ft 19 kts 169°
2026-04-30 09:26 45.61667 8.72302 756 ft 20 kts 169°
2026-04-30 09:26 45.61532 8.72341 757 ft 20 kts 169°
2026-04-30 09:26 45.61446 8.72363 756 ft 11 kts 169°
2026-04-30 09:27 45.61398 8.72336 753 ft 8 kts 235°
2026-04-30 09:27 45.61383 8.72259 754 ft 6 kts 259°
2026-04-30 09:27 45.61366 8.72201 752 ft 7 kts 221°
2026-04-30 09:27 45.61313 8.72197 753 ft 8 kts 165°
2026-04-30 09:28 45.61253 8.72217 755 ft 11 kts 169°
2026-04-30 09:28 45.61171 8.72239 754 ft 13 kts 169°
2026-04-30 09:28 45.61075 8.72266 754 ft 16 kts 169°
2026-04-30 09:28 45.60962 8.72298 757 ft 17 kts 169°
2026-04-30 09:29 45.60839 8.72332 754 ft 18 kts 169°
2026-04-30 09:29 45.60725 8.72363 756 ft 11 kts 169°
2026-04-30 09:29 45.60659 8.72388 754 ft 9 kts 145°
2026-04-30 09:29 45.60640 8.72470 754 ft 9 kts 97°
2026-04-30 09:30 45.60632 8.72568 757 ft 11 kts 96°
2026-04-30 09:30 45.60624 8.72678 756 ft 12 kts 96°
2026-04-30 09:30 45.60613 8.72832 758 ft 21 kts 96°
2026-04-30 09:30 45.60597 8.73051 754 ft 22 kts 96°
2026-04-30 09:31 45.60594 8.73208 755 ft 15 kts 71°
2026-04-30 09:31 45.60674 8.73293 754 ft 15 kts 22°
2026-04-30 09:31 45.60774 8.73350 754 ft 16 kts 21°
2026-04-30 09:31 45.60876 8.73405 755 ft 16 kts 14°
2026-04-30 09:32 45.60984 8.73385 756 ft 16 kts 348°
2026-04-30 09:32 45.61097 8.73351 754 ft 17 kts 349°
2026-04-30 09:32 45.61213 8.73320 754 ft 17 kts 349°
2026-04-30 09:32 45.61334 8.73287 754 ft 18 kts 348°
2026-04-30 09:33 45.61456 8.73253 757 ft 18 kts 349°
2026-04-30 09:33 45.61571 8.73222 755 ft 4 kts 355°
2026-04-30 09:33 45.61600 8.73230 754 ft 5 kts 24°
2026-04-30 09:33 45.61619 8.73270 753 ft 5 kts 82°
2026-04-30 09:34 45.61624 8.73330 756 ft 7 kts 83°
2026-04-30 09:34 45.61629 8.73406 757 ft 8 kts 88°
2026-04-30 09:34 45.61606 8.73489 752 ft 10 kts 120°
2026-04-30 09:34 45.61584 8.73592 755 ft 12 kts 92°
2026-04-30 09:35 45.61595 8.73716 747 ft 9 kts 71°
2026-04-30 09:35 45.61638 8.73731 746 ft 7 kts 348°
2026-04-30 09:35 45.61800 8.73686 746 ft 50 kts 349°
2026-04-30 09:35 45.62460 8.73506 750 ft 140 kts 348°
2026-04-30 09:36 45.63550 8.73222 1317 ft 158 kts 352°
2026-04-30 09:36 45.64604 8.72816 2417 ft 157 kts 343°
2026-04-30 09:36 45.65706 8.72547 3110 ft 169 kts 16°
2026-04-30 09:36 45.66653 8.73445 3906 ft 165 kts 58°
2026-04-30 09:37 45.67175 8.74928 4695 ft 178 kts 75°
2026-04-30 09:37 45.67473 8.76756 5242 ft 197 kts 70°
2026-04-30 09:37 45.68346 8.78312 6001 ft 210 kts 40°
2026-04-30 09:37 45.69530 8.79647 6838 ft 218 kts 41°
2026-04-30 09:38 45.70700 8.81038 7781 ft 219 kts 41°
2026-04-30 09:38 45.71835 8.82446 8693 ft 219 kts 49°
2026-04-30 09:38 45.72532 8.84410 9561 ft 227 kts 80°
2026-04-30 09:38 45.72376 8.86727 10160 ft 249 kts 114°
2026-04-30 09:39 45.71420 8.88853 10812 ft 260 kts 126°
2026-04-30 09:39 45.70329 8.90964 11736 ft 267 kts 125°
2026-04-30 09:39 45.69220 8.93112 12849 ft 270 kts 124°
2026-04-30 09:39 45.68096 8.95299 13966 ft 276 kts 123°
2026-04-30 09:40 45.66950 8.97543 14957 ft 281 kts 123°
2026-04-30 09:40 45.65795 8.99809 16005 ft 284 kts 123°
2026-04-30 09:40 45.64625 9.02096 17094 ft 286 kts 124°
2026-04-30 09:40 45.63335 9.04335 17997 ft 300 kts 128°
2026-04-30 09:41 45.61866 9.06665 18330 ft 331 kts 130°
2026-04-30 09:41 45.60238 9.09191 18558 ft 364 kts 130°
2026-04-30 09:41 45.58442 9.11969 18781 ft 395 kts 130°
2026-04-30 09:41 45.56513 9.14959 19145 ft 418 kts 130°
2026-04-30 09:42 45.63302 8.71284 19222 ft 0 kts 349°
2026-04-30 09:44 45.63301 8.71277 752 ft 0 kts 305°
2026-04-30 10:26 45.63295 8.71290 757 ft 3 kts 304°
2026-04-30 10:26 45.63284 8.71314 752 ft 3 kts 306°
2026-04-30 10:27 45.63271 8.71335 752 ft 3 kts 326°
2026-04-30 10:27 45.63255 8.71345 752 ft 3 kts 354°
2026-04-30 10:27 45.63238 8.71344 752 ft 3 kts 39°
2026-04-30 10:27 45.63229 8.71324 752 ft 3 kts 79°
2026-04-30 10:28 45.63228 8.71310 752 ft 0 kts 79°
2026-04-30 10:28 45.63231 8.71338 752 ft 3 kts 79°
2026-04-30 10:28 45.63235 8.71366 754 ft 3 kts 79°
2026-04-30 10:28 45.63236 8.71374 754 ft 0 kts 79°
2026-04-30 10:32 45.63237 8.71375 757 ft 1 kts 79°
2026-04-30 10:32 45.63243 8.71429 755 ft 11 kts 80°
2026-04-30 10:32 45.63261 8.71566 752 ft 14 kts 79°
2026-04-30 10:32 45.63279 8.71694 755 ft 12 kts 79°
2026-04-30 10:33 45.63294 8.71812 756 ft 12 kts 85°
2026-04-30 10:33 45.63239 8.71868 751 ft 11 kts 166°
2026-04-30 10:33 45.63167 8.71890 752 ft 11 kts 168°
2026-04-30 10:33 45.63094 8.71911 757 ft 11 kts 168°
2026-04-30 10:34 45.63020 8.71930 752 ft 11 kts 170°
2026-04-30 10:34 45.62947 8.71949 754 ft 11 kts 169°
2026-04-30 10:34 45.62874 8.71969 753 ft 11 kts 169°
2026-04-30 10:34 45.62802 8.71987 754 ft 11 kts 169°
2026-04-30 10:35 45.62729 8.72006 753 ft 11 kts 170°
2026-04-30 10:35 45.62656 8.72027 753 ft 11 kts 167°
2026-04-30 10:35 45.62584 8.72050 755 ft 11 kts 169°
2026-04-30 10:35 45.62510 8.72069 756 ft 11 kts 170°
2026-04-30 10:36 45.62437 8.72087 753 ft 11 kts 170°
2026-04-30 10:36 45.62359 8.72109 755 ft 13 kts 168°
2026-04-30 10:36 45.62252 8.72140 756 ft 16 kts 168°
2026-04-30 10:36 45.62140 8.72172 756 ft 16 kts 169°
2026-04-30 10:37 45.62027 8.72203 755 ft 16 kts 169°
2026-04-30 10:37 45.61915 8.72233 754 ft 16 kts 169°
2026-04-30 10:37 45.61804 8.72263 755 ft 16 kts 169°
2026-04-30 10:37 45.61691 8.72295 754 ft 16 kts 168°
2026-04-30 10:38 45.61578 8.72331 755 ft 17 kts 170°
2026-04-30 10:38 45.61461 8.72361 757 ft 13 kts 170°
2026-04-30 10:38 45.61389 8.72304 753 ft 14 kts 246°
2026-04-30 10:38 45.61368 8.72197 752 ft 8 kts 226°
2026-04-30 10:39 45.61310 8.72199 753 ft 9 kts 166°
2026-04-30 10:39 45.61242 8.72221 755 ft 11 kts 167°
2026-04-30 10:39 45.61164 8.72247 754 ft 12 kts 167°
2026-04-30 10:39 45.61076 8.72270 755 ft 14 kts 172°
2026-04-30 10:40 45.60979 8.72291 755 ft 15 kts 169°
2026-04-30 10:40 45.60879 8.72318 753 ft 15 kts 169°
2026-04-30 10:40 45.60779 8.72345 753 ft 15 kts 169°
2026-04-30 10:40 45.60680 8.72374 755 ft 15 kts 161°
2026-04-30 10:41 45.60637 8.72501 754 ft 15 kts 95°
2026-04-30 10:41 45.60628 8.72651 754 ft 15 kts 96°
2026-04-30 10:41 45.60615 8.72800 758 ft 15 kts 96°
2026-04-30 10:41 45.60605 8.72950 756 ft 15 kts 95°
2026-04-30 10:42 45.60594 8.73100 754 ft 15 kts 98°
2026-04-30 10:42 45.60603 8.73236 753 ft 14 kts 56°
2026-04-30 10:42 45.60691 8.73302 754 ft 15 kts 21°
2026-04-30 10:42 45.60786 8.73355 754 ft 15 kts 23°
2026-04-30 10:43 45.60881 8.73404 754 ft 15 kts 10°
2026-04-30 10:43 45.60973 8.73386 756 ft 12 kts 348°
2026-04-30 10:43 45.61055 8.73362 754 ft 13 kts 349°
2026-04-30 10:43 45.61146 8.73337 753 ft 14 kts 349°
2026-04-30 10:44 45.61219 8.73318 756 ft 10 kts 349°
2026-04-30 10:44 45.61293 8.73299 755 ft 12 kts 350°
2026-04-30 10:44 45.61376 8.73275 758 ft 13 kts 347°
2026-04-30 10:44 45.61463 8.73250 756 ft 13 kts 348°
2026-04-30 10:45 45.61556 8.73223 757 ft 14 kts 349°
2026-04-30 10:45 45.61617 8.73273 753 ft 11 kts 79°
2026-04-30 10:45 45.61631 8.73386 755 ft 12 kts 83°
2026-04-30 10:45 45.61603 8.73500 753 ft 13 kts 121°
2026-04-30 10:46 45.61589 8.73632 751 ft 15 kts 79°
2026-04-30 10:46 45.61608 8.73730 745 ft 7 kts 45°
2026-04-30 10:46 45.61665 8.73724 746 ft 16 kts 347°
2026-04-30 10:46 45.61972 8.73641 747 ft 85 kts 349°
2026-04-30 10:47 45.62843 8.73405 785 ft 161 kts 352°
2026-04-30 10:47 45.63898 8.73101 1638 ft 157 kts 351°
2026-04-30 10:47 45.65049 8.72827 2596 ft 166 kts 355°
2026-04-30 10:47 45.66202 8.72687 3591 ft 167 kts
2026-04-30 10:48 45.67399 8.72660 4440 ft 178 kts
2026-04-30 10:48 45.68722 8.72647 4911 ft 210 kts
2026-04-30 10:48 45.70298 8.72633 5463 ft 234 kts
2026-04-30 10:48 45.71966 8.72429 6067 ft 255 kts 344°
2026-04-30 10:49 45.73485 8.70937 6756 ft 276 kts 307°
2026-04-30 10:49 45.74251 8.68416 7900 ft 278 kts 278°
2026-04-30 10:49 45.74087 8.65680 9090 ft 279 kts 250°
2026-04-30 10:49 45.73153 8.63238 10263 ft 281 kts 236°
2026-04-30 10:50 45.71982 8.60923 11109 ft 297 kts 234°
2026-04-30 10:50 45.70714 8.58458 11442 ft 329 kts 237°
2026-04-30 10:50 45.69384 8.55526 11729 ft 365 kts 239°
2026-04-30 10:50 45.67858 8.52584 12215 ft 381 kts 224°
2026-04-30 10:51 45.65578 8.50670 13328 ft 387 kts 202°
2026-04-30 10:51 45.63012 8.49294 14272 ft 398 kts 201°
2026-04-30 10:51 45.60286 8.48420 14996 ft 410 kts 181°
2026-04-30 10:51 45.57466 8.49034 16141 ft 413 kts 160°
2026-04-30 10:52 45.54951 8.50970 17384 ft 413 kts 140°
2026-04-30 10:52 45.52988 8.53944 18525 ft 414 kts 122°
2026-04-30 10:52 45.51760 8.57628 19361 ft 413 kts 109°
2026-04-30 10:52 45.50727 8.61525 20087 ft 424 kts 109°
2026-04-30 10:53 45.50027 8.64146 20639 ft 430 kts 109°
2026-04-30 10:53 45.48950 8.68153 21574 ft 436 kts 109°
2026-04-30 10:53 45.47849 8.72212 22494 ft 441 kts 109°
2026-04-30 10:53 45.46724 8.76314 23376 ft 448 kts 109°
2026-04-30 10:54 45.45575 8.80471 24157 ft 455 kts 109°
2026-04-30 10:54 45.44402 8.84690 24850 ft 461 kts 110°
2026-04-30 10:54 45.43216 8.88937 25575 ft 466 kts 110°
2026-04-30 10:54 45.42008 8.93245 26253 ft 473 kts 110°
2026-04-30 10:55 45.40776 8.97634 26823 ft 482 kts 110°
2026-04-30 10:55 45.39519 9.02105 27437 ft 489 kts 110°
2026-04-30 10:55 45.38267 9.06549 28099 ft 494 kts 110°
2026-04-30 10:55 45.36977 9.11121 28782 ft 499 kts 110°
2026-04-30 10:56 45.35673 9.15731 29406 ft 504 kts 110°
2026-04-30 10:56 45.34356 9.20383 29966 ft 510 kts 110°
2026-04-30 10:56 45.33022 9.25083 30459 ft 515 kts 110°
2026-04-30 10:56 45.31673 9.29829 30959 ft 518 kts 110°
2026-04-30 10:57 45.30322 9.34570 31686 ft 515 kts 110°
2026-04-30 10:57 45.28980 9.39270 32412 ft 511 kts 110°
2026-04-30 10:57 45.27660 9.43885 33115 ft 510 kts 110°
2026-04-30 10:57 45.26328 9.48540 33761 ft 509 kts 110°
2026-04-30 10:58 45.24992 9.53196 34338 ft 509 kts 110°
2026-04-30 10:58 45.23656 9.57850 34862 ft 508 kts 110°
2026-04-30 10:58 45.22318 9.62498 35371 ft 508 kts 111°
2026-04-30 10:58 45.20957 9.67103 35854 ft 506 kts 114°
2026-04-30 10:59 45.19023 9.71303 36073 ft 514 kts 132°
2026-04-30 10:59 45.16317 9.74615 36467 ft 514 kts 148°
2026-04-30 10:59 45.13134 9.76837 36839 ft 510 kts 160°
2026-04-30 10:59 45.09836 9.78753 37147 ft 513 kts 159°
2026-04-30 11:00 45.06543 9.80685 37616 ft 512 kts 159°
2026-04-30 11:00 45.03262 9.82647 38114 ft 511 kts 159°
2026-04-30 11:00 45.00000 9.84632 38643 ft 510 kts 158°
2026-04-30 11:00 44.96744 9.86637 39074 ft 509 kts 158°
2026-04-30 11:01 44.93500 9.88645 39397 ft 509 kts 158°
2026-04-30 11:01 44.90251 9.90658 39724 ft 510 kts 158°
2026-04-30 11:01 44.87001 9.92670 40071 ft 510 kts 158°
2026-04-30 11:01 44.83798 9.94647 40437 ft 509 kts 158°
2026-04-30 11:02 44.80547 9.96648 40763 ft 509 kts 158°
2026-04-30 11:02 44.77299 9.98645 41111 ft 509 kts 158°
2026-04-30 11:02 44.74037 10.00647 41230 ft 514 kts 158°
2026-04-30 11:02 44.70745 10.02663 41261 ft 516 kts 158°
2026-04-30 11:03 44.64179 10.06682 41275 ft 512 kts 158°
2026-04-30 11:04 44.54453 10.12617 41258 ft 506 kts 159°
2026-04-30 11:04 44.48032 10.16522 41265 ft 505 kts 159°
2026-04-30 11:05 44.41502 10.20128 41261 ft 504 kts 162°
2026-04-30 11:05 44.34910 10.23507 41257 ft 506 kts 162°
2026-04-30 11:06 44.28299 10.26930 41226 ft 507 kts 162°
2026-04-30 11:06 44.21679 10.30408 41212 ft 509 kts 162°
2026-04-30 11:07 44.15052 10.33897 41231 ft 510 kts 162°
2026-04-30 11:07 44.08417 10.37379 41215 ft 510 kts 162°
2026-04-30 11:08 44.01833 10.40822 41200 ft 511 kts 162°
2026-04-30 11:08 43.95208 10.44277 41193 ft 511 kts 162°
2026-04-30 11:09 43.88528 10.47756 41179 ft 510 kts 162°
2026-04-30 11:09 43.81880 10.51208 41185 ft 510 kts 162°
2026-04-30 11:10 43.75227 10.54648 41184 ft 510 kts 163°
2026-04-30 11:10 43.68527 10.57828 41190 ft 508 kts 165°
2026-04-30 11:11 43.61883 10.60839 41185 ft 508 kts 165°
2026-04-30 11:11 43.55204 10.63888 41171 ft 508 kts 165°
2026-04-30 11:12 43.48432 10.67009 41161 ft 508 kts 165°
2026-04-30 11:12 43.41731 10.70102 41167 ft 508 kts 165°
2026-04-30 11:13 43.35060 10.73173 41164 ft 508 kts 165°
2026-04-30 11:13 43.28353 10.76250 41156 ft 507 kts 165°
2026-04-30 11:14 43.21663 10.79312 41157 ft 507 kts 165°
2026-04-30 11:14 43.14972 10.82367 41161 ft 506 kts 165°
2026-04-30 11:15 43.08276 10.85417 41155 ft 506 kts 165°
2026-04-30 11:15 43.01586 10.88458 41161 ft 506 kts 165°
2026-04-30 11:16 42.94932 10.91476 41151 ft 506 kts 165°
2026-04-30 11:16 42.88240 10.94504 41122 ft 506 kts 165°
2026-04-30 11:17 42.81561 10.97520 41132 ft 505 kts 165°
2026-04-30 11:17 42.74888 11.00526 41125 ft 505 kts 165°
2026-04-30 11:18 42.68222 11.03524 41117 ft 504 kts 165°
2026-04-30 11:18 42.58244 11.08018 41133 ft 503 kts 165°
2026-04-30 11:19 42.51597 11.11007 41140 ft 502 kts 165°
2026-04-30 11:19 42.44997 11.13967 41138 ft 502 kts 165°
2026-04-30 11:20 42.38357 11.16937 41147 ft 503 kts 165°
2026-04-30 11:20 42.31704 11.19906 41143 ft 504 kts 165°
2026-04-30 11:21 42.25039 11.22874 41144 ft 504 kts 165°
2026-04-30 11:21 42.18406 11.25822 41140 ft 505 kts 165°
2026-04-30 11:22 42.11725 11.28785 41139 ft 505 kts 166°
2026-04-30 11:22 42.05039 11.31743 41123 ft 506 kts 166°
2026-04-30 11:23 41.98349 11.34696 41128 ft 506 kts 166°
2026-04-30 11:24 41.88311 11.39115 41127 ft 506 kts 166°
2026-04-30 11:24 41.81617 11.42054 41115 ft 505 kts 166°
2026-04-30 11:25 41.71600 11.46439 41126 ft 505 kts 166°
2026-04-30 11:26 41.58273 11.52251 41126 ft 504 kts 166°
2026-04-30 11:26 41.51596 11.55154 41135 ft 504 kts 166°
2026-04-30 11:27 41.44920 11.58050 41133 ft 504 kts 166°
2026-04-30 11:27 41.38243 11.60939 41118 ft 504 kts 166°
2026-04-30 11:28 41.28222 11.65265 41132 ft 504 kts 166°
2026-04-30 11:29 41.21541 11.68142 41141 ft 505 kts 166°
2026-04-30 11:29 41.11554 11.72430 41130 ft 505 kts 166°
2026-04-30 11:30 41.01530 11.76720 41128 ft 505 kts 166°
2026-04-30 11:31 40.94842 11.79576 41106 ft 505 kts 166°
2026-04-30 11:31 40.88148 11.82428 41125 ft 505 kts 166°
2026-04-30 11:32 40.81478 11.85413 41130 ft 507 kts 163°
2026-04-30 11:32 40.74924 11.88713 41128 ft 508 kts 162°
2026-04-30 11:33 40.65029 11.93721 41125 ft 508 kts 163°
2026-04-30 11:33 40.58404 11.97001 41126 ft 508 kts 163°
2026-04-30 11:34 40.51767 12.00260 41120 ft 509 kts 163°
2026-04-30 11:34 40.45130 12.03512 41124 ft 509 kts 163°
2026-04-30 11:35 40.38494 12.06760 41113 ft 510 kts 163°
2026-04-30 11:35 40.31839 12.10012 41116 ft 510 kts 163°
2026-04-30 11:36 40.25191 12.13254 41115 ft 510 kts 163°
2026-04-30 11:36 40.18582 12.16471 41118 ft 510 kts 163°
2026-04-30 11:37 40.11923 12.19704 41117 ft 510 kts 163°
2026-04-30 11:37 40.05258 12.22934 41113 ft 510 kts 163°
2026-04-30 11:38 39.98594 12.26157 41114 ft 510 kts 163°
2026-04-30 11:38 39.91940 12.29368 41113 ft 510 kts 163°
2026-04-30 11:39 39.85280 12.32575 41110 ft 510 kts 163°
2026-04-30 11:39 39.78617 12.35777 41094 ft 510 kts 164°
2026-04-30 11:40 39.73086 12.38430 41097 ft 510 kts 164°
2026-04-30 11:40 39.65342 12.42137 41117 ft 510 kts 164°
2026-04-30 11:41 39.59749 12.44808 41102 ft 511 kts 164°
2026-04-30 11:41 39.53081 12.47988 41086 ft 511 kts 164°
2026-04-30 11:42 39.46447 12.51144 41097 ft 511 kts 164°
2026-04-30 11:42 39.39777 12.54312 41097 ft 511 kts 164°
2026-04-30 11:43 39.33100 12.57476 41080 ft 511 kts 164°
2026-04-30 11:43 39.26411 12.60639 41090 ft 511 kts 164°
2026-04-30 11:44 39.19717 12.63798 41088 ft 511 kts 164°
2026-04-30 11:44 39.13020 12.66952 41085 ft 512 kts 164°
2026-04-30 11:45 39.06364 12.70081 41079 ft 512 kts 164°
2026-04-30 11:45 38.99675 12.73219 41089 ft 512 kts 164°
2026-04-30 11:46 38.92974 12.76356 41078 ft 512 kts 164°
2026-04-30 11:46 38.86309 12.79470 41062 ft 512 kts 164°
2026-04-30 11:47 38.79604 12.82596 41071 ft 512 kts 164°
2026-04-30 11:47 38.72897 12.85717 41072 ft 513 kts 164°
2026-04-30 11:48 38.66184 12.88835 41063 ft 513 kts 165°
2026-04-30 11:48 38.59465 12.91949 41058 ft 513 kts 165°
2026-04-30 11:49 38.52751 12.95055 41070 ft 513 kts 165°
2026-04-30 11:49 38.46069 12.98140 41062 ft 513 kts 165°
2026-04-30 11:50 38.39352 13.01235 41027 ft 513 kts 165°
2026-04-30 11:50 38.32632 13.04325 41043 ft 513 kts 165°
2026-04-30 11:51 38.25910 13.07411 41050 ft 513 kts 165°
2026-04-30 11:51 38.19191 13.10488 41050 ft 513 kts 165°
2026-04-30 11:52 38.12472 13.13560 41060 ft 513 kts 165°
2026-04-30 11:52 38.05750 13.16629 41050 ft 513 kts 165°
2026-04-30 11:53 37.99067 13.19816 41042 ft 513 kts 162°
2026-04-30 11:53 37.92526 13.23341 41044 ft 514 kts 161°
2026-04-30 11:54 37.85949 13.26916 41047 ft 513 kts 162°
2026-04-30 11:54 37.79370 13.30416 41043 ft 512 kts 162°
2026-04-30 11:55 37.72781 13.33881 41042 ft 512 kts 162°
2026-04-30 11:55 37.69482 13.35612 40780 ft 516 kts 162°
2026-04-30 11:55 37.66139 13.37360 40014 ft 521 kts 162°
2026-04-30 11:56 37.62791 13.39115 39303 ft 520 kts 163°
2026-04-30 11:56 37.59448 13.40870 38527 ft 519 kts 163°
2026-04-30 11:56 37.56156 13.42596 37619 ft 519 kts 163°
2026-04-30 11:56 37.52824 13.44340 36767 ft 518 kts 162°
2026-04-30 11:57 37.49504 13.46076 35952 ft 517 kts 162°
2026-04-30 11:57 37.46175 13.47814 35006 ft 519 kts 162°
2026-04-30 11:57 37.42838 13.49553 34007 ft 522 kts 162°
2026-04-30 11:57 37.39461 13.51313 32778 ft 527 kts 162°
2026-04-30 11:58 37.36064 13.53083 31619 ft 529 kts 161°
2026-04-30 11:58 37.32655 13.54857 30481 ft 532 kts 161°
2026-04-30 11:58 37.29256 13.56625 29660 ft 526 kts 161°
2026-04-30 11:58 37.25887 13.58370 28806 ft 520 kts 161°
2026-04-30 11:59 37.22550 13.60088 28036 ft 513 kts 161°
2026-04-30 11:59 37.19272 13.61771 27287 ft 507 kts 161°
2026-04-30 11:59 37.16028 13.63437 26534 ft 501 kts 161°
2026-04-30 11:59 37.12822 13.65084 25814 ft 495 kts 161°
2026-04-30 12:00 37.09648 13.66715 25091 ft 490 kts 160°
2026-04-30 12:00 37.06556 13.68306 24415 ft 485 kts 160°
2026-04-30 12:00 37.03446 13.69907 23713 ft 481 kts 160°
2026-04-30 12:00 37.00359 13.71495 22909 ft 477 kts 160°
2026-04-30 12:01 36.97310 13.73063 22183 ft 471 kts 160°
2026-04-30 12:01 36.94298 13.74611 21479 ft 465 kts 160°
2026-04-30 12:01 36.91323 13.76138 20802 ft 459 kts 160°
2026-04-30 12:01 36.88386 13.77644 20141 ft 453 kts 160°
2026-04-30 12:02 36.85483 13.79131 19492 ft 448 kts 160°
2026-04-30 12:02 36.82607 13.80601 18853 ft 444 kts 160°
2026-04-30 12:02 36.79762 13.82055 18193 ft 440 kts 160°
2026-04-30 12:02 36.76934 13.83499 17466 ft 437 kts 160°
2026-04-30 12:03 36.74135 13.84927 16795 ft 432 kts 160°
2026-04-30 12:03 36.68624 13.87737 15513 ft 423 kts 160°
2026-04-30 12:03 36.65944 13.89102 14893 ft 419 kts 160°
2026-04-30 12:04 36.63257 13.90469 14261 ft 415 kts 160°
2026-04-30 12:04 36.60593 13.91823 13609 ft 412 kts 160°
2026-04-30 12:04 36.57944 13.93168 12925 ft 409 kts 160°
2026-04-30 12:04 36.55321 13.94500 12282 ft 405 kts 160°
2026-04-30 12:05 36.52729 13.95816 11689 ft 401 kts 160°
2026-04-30 12:05 36.50155 13.97120 11069 ft 398 kts 160°
2026-04-30 12:05 36.47615 13.98407 10769 ft 387 kts 160°
2026-04-30 12:05 36.45166 13.99647 10601 ft 373 kts 160°
2026-04-30 12:06 36.42802 14.00843 10441 ft 361 kts 160°
2026-04-30 12:06 36.40504 14.02005 10293 ft 351 kts 160°
2026-04-30 12:06 36.38276 14.03130 10129 ft 341 kts 160°
2026-04-30 12:06 36.36111 14.04223 9955 ft 333 kts 160°
2026-04-30 12:07 36.34021 14.05278 9724 ft 310 kts 160°
2026-04-30 12:07 36.32089 14.06254 9301 ft 291 kts 160°
2026-04-30 12:07 36.30281 14.07166 8974 ft 272 kts 160°
2026-04-30 12:07 36.28559 14.08033 8686 ft 266 kts 160°
2026-04-30 12:08 36.26829 14.08899 8442 ft 279 kts 160°
2026-04-30 12:08 36.24990 14.09819 8151 ft 289 kts 160°
2026-04-30 12:08 36.23127 14.10755 7840 ft 288 kts 160°
2026-04-30 12:08 36.21286 14.11681 7522 ft 283 kts 160°
2026-04-30 12:09 36.19478 14.12590 7196 ft 279 kts 160°
2026-04-30 12:09 36.17695 14.13486 6878 ft 274 kts 160°
2026-04-30 12:09 36.15955 14.14391 6541 ft 267 kts 154°
2026-04-30 12:09 36.14424 14.15718 6135 ft 271 kts 141°
2026-04-30 12:10 36.12989 14.17269 5835 ft 276 kts 139°
2026-04-30 12:10 36.11542 14.18865 5539 ft 278 kts 139°
2026-04-30 12:10 36.10101 14.20430 5230 ft 273 kts 140°
2026-04-30 12:10 36.08675 14.21955 4937 ft 268 kts 140°
2026-04-30 12:11 36.07275 14.23434 4668 ft 263 kts 140°
2026-04-30 12:11 36.05901 14.24872 4374 ft 260 kts 141°
2026-04-30 12:11 36.04527 14.26300 4112 ft 255 kts 141°
2026-04-30 12:11 36.03200 14.27677 3982 ft 244 kts 141°
2026-04-30 12:12 36.01905 14.29016 3902 ft 242 kts 141°
2026-04-30 12:12 36.00613 14.30350 3780 ft 241 kts 141°
2026-04-30 12:12 35.99331 14.31674 3688 ft 239 kts 141°
2026-04-30 12:12 35.98052 14.32992 3457 ft 242 kts 141°
2026-04-30 12:13 35.96744 14.34339 3237 ft 245 kts 140°
2026-04-30 12:13 35.95450 14.35681 3063 ft 238 kts 139°
2026-04-30 12:13 35.94285 14.37068 2981 ft 228 kts 135°
2026-04-30 12:13 35.93224 14.38412 3016 ft 208 kts 134°
2026-04-30 12:14 35.92235 14.39660 2826 ft 202 kts 134°
2026-04-30 12:14 35.91221 14.40937 2120 ft 211 kts 136°
2026-04-30 12:14 35.90196 14.42155 1696 ft 197 kts 135°
2026-04-30 12:14 35.89270 14.43321 1299 ft 185 kts 133°
2026-04-30 12:15 35.88425 14.44411 1016 ft 166 kts 134°
2026-04-30 12:15 35.87636 14.45380 885 ft 156 kts 135°
2026-04-30 12:15 35.86751 14.46416 1333 ft 184 kts 134°
2026-04-30 12:15 35.85891 14.47503 2543 ft 185 kts 134°
2026-04-30 12:16 35.84921 14.48716 2823 ft 199 kts 135°
2026-04-30 12:16 35.83943 14.49900 2973 ft 203 kts 136°
2026-04-30 12:16 35.82894 14.51188 2958 ft 220 kts 129°
2026-04-30 12:16 35.82220 14.52955 2989 ft 236 kts 97°
2026-04-30 12:17 35.83398 14.56486 3002 ft 232 kts 33°
2026-04-30 12:17 35.84894 14.57150 2976 ft 229 kts
2026-04-30 12:17 35.86416 14.56727 2983 ft 226 kts 329°
2026-04-30 12:18 35.87642 14.55548 3000 ft 225 kts 317°
2026-04-30 12:18 35.88794 14.54211 2999 ft 229 kts 316°
2026-04-30 12:18 35.89944 14.52857 2985 ft 227 kts 316°
2026-04-30 12:18 35.91067 14.51518 2963 ft 221 kts 316°
2026-04-30 12:19 35.92170 14.50202 2981 ft 221 kts 316°
2026-04-30 12:19 35.93185 14.48785 2986 ft 221 kts 298°
2026-04-30 12:19 35.93539 14.46938 3004 ft 225 kts 266°
2026-04-30 12:19 35.93025 14.45196 2991 ft 212 kts 233°
2026-04-30 12:20 35.92053 14.43961 3004 ft 190 kts 226°
2026-04-30 12:20 35.91151 14.42900 2939 ft 168 kts 221°
2026-04-30 12:20 35.90040 14.42431 2457 ft 179 kts 179°
2026-04-30 12:20 35.88873 14.42964 1846 ft 180 kts 143°
2026-04-30 12:21 35.88148 14.44108 1419 ft 162 kts 117°
2026-04-30 12:21 35.87638 14.45308 935 ft 152 kts 122°
2026-04-30 12:21 35.86971 14.46248 670 ft 143 kts 135°
2026-04-30 12:21 35.86262 14.47103 492 ft 145 kts 133°
2026-04-30 12:22 35.85550 14.47985 308 ft 141 kts 133°
2026-04-30 12:22 35.84916 14.48779 263 ft 112 kts 134°
2026-04-30 12:22 35.84497 14.49301 263 ft 60 kts 134°
2026-04-30 12:22 35.84331 14.49516 262 ft 21 kts 135°
2026-04-30 12:23 35.84209 14.49663 260 ft 12 kts 125°
2026-04-30 12:23 35.84227 14.49701 260 ft 6 kts
2026-04-30 12:23 35.84270 14.49689 261 ft 7 kts 345°
2026-04-30 12:23 35.84322 14.49672 261 ft 8 kts 344°
2026-04-30 12:24 35.84383 14.49651 262 ft 10 kts 344°
2026-04-30 12:24 35.84452 14.49623 263 ft 11 kts 336°
2026-04-30 12:24 35.84521 14.49570 263 ft 12 kts 319°
2026-04-30 12:24 35.84587 14.49488 263 ft 14 kts 314°
2026-04-30 12:25 35.84661 14.49397 263 ft 16 kts 315°
2026-04-30 12:25 35.84746 14.49291 263 ft 18 kts 313°
2026-04-30 12:25 35.84836 14.49176 263 ft 20 kts 314°
2026-04-30 12:25 35.84928 14.49060 263 ft 17 kts 314°
2026-04-30 12:26 35.84977 14.48931 263 ft 17 kts 278°
2026-04-30 12:26 35.85016 14.48786 265 ft 18 kts 288°
2026-04-30 12:26 35.85054 14.48641 270 ft 18 kts 288°
2026-04-30 12:26 35.85092 14.48553 274 ft 18 kts 315°
2026-04-30 12:27 35.85180 14.48453 276 ft 19 kts 315°
2026-04-30 12:27 35.85274 14.48334 276 ft 20 kts 314°
2026-04-30 12:27 35.85376 14.48206 276 ft 21 kts 314°
2026-04-30 12:27 35.85482 14.48077 276 ft 21 kts 315°
2026-04-30 12:28 35.85587 14.47948 276 ft 21 kts 315°
2026-04-30 12:28 35.85688 14.47821 276 ft 21 kts 315°
2026-04-30 12:28 35.85785 14.47712 276 ft 14 kts 317°
2026-04-30 12:28 35.85845 14.47651 276 ft 5 kts 350°
2026-04-30 12:29 35.85872 14.47675 276 ft 5 kts 23°
2026-04-30 12:29 35.85903 14.47666 276 ft 1 kts 354°
2026-04-30 12:29 35.85908 14.47669 276 ft 1 kts 21°
2026-04-30 12:29 35.85911 14.47674 276 ft 1 kts 45°
2026-04-30 12:30 35.85916 14.47679 276 ft 1 kts 45°
2026-04-30 12:30 35.85919 14.47685 276 ft 1 kts 54°
2026-04-30 12:30 35.85919 14.47692 276 ft 0 kts 80°
2026-04-30 12:30 35.85919 14.47693 276 ft 0 kts 82°
2026-04-30 12:32 35.85999 14.47723 277 ft 0 kts 88°